When you browse on this site, cookies collect data to enhance your experience and personalize the content and advertising you see.
Visit our Privacy Policy to learn more. By continuing to use the site, you agree to this use of cookies and data.
  • In United Kingdom
  • List of Countries
  • For 7 days
  • Water Temperature
  • Satellite Maps
  • Weather Map
  • Weather Widgets
  • user-avatar
    Login

    Hourly Weather Sharan

    Today, 24 March, Sunday

    Time Temperature Precipitation Wind Pressure Humidity
    00:00 +5°C° 0 mm 2 mps 586 mmHg 76%
    01:00 +5°C° 0 mm 1 mps 586 mmHg 76%
    02:00 +5°C° 0 mm 1 mps 586 mmHg 77%
    03:00 +5°C° 0 mm 1 mps 586 mmHg 77%
    04:00 +4°C° 0 mm 1 mps 586 mmHg 78%
    05:00 +3°C° 0 mm 2 mps 585 mmHg 79%
    06:00 +3°C° 0 mm 2 mps 585 mmHg 77%
    07:00 +3°C° 0 mm 2 mps 586 mmHg 76%
    08:00 +3°C° 0 mm 2 mps 586 mmHg 74%
    09:00 +6°C° 0 mm 1 mps 586 mmHg 69%
    10:00 +7°C° 0 mm 1 mps 587 mmHg 64%
    11:00 +8°C° 0 mm 1 mps 587 mmHg 60%
    12:00 +9°C° 0 mm 1 mps 587 mmHg 53%
    13:00 +9°C° 0 mm 2 mps 587 mmHg 47%
    14:00 +10°C° 0 mm 2 mps 587 mmHg 41%
    15:00 +10°C° 0 mm 2 mps 587 mmHg 39%
    16:00 +10°C° 0 mm 2 mps 586 mmHg 37%
    17:00 +10°C° 0 mm 2 mps 586 mmHg 35%
    18:00 +9°C° 0 mm 2 mps 586 mmHg 39%
    19:00 +8°C° 0 mm 2 mps 586 mmHg 43%
    20:00 +8°C° 0 mm 1 mps 586 mmHg 48%
    21:00 +6°C° 0 mm 2 mps 586 mmHg 50%
    22:00 +5°C° 0 mm 2 mps 586 mmHg 53%
    23:00 +5°C° 0 mm 2 mps 586 mmHg 55%

    Tomorrow, 25 March, Monday

    Time Temperature Precipitation Wind Pressure Humidity
    00:00 +5°C° 0 mm 2 mps 586 mmHg 55%
    01:00 +4°C° 0 mm 2 mps 586 mmHg 55%
    02:00 +4°C° 0 mm 2 mps 585 mmHg 56%
    03:00 +4°C° 0 mm 2 mps 585 mmHg 56%
    04:00 +3°C° 0 mm 2 mps 585 mmHg 55%
    05:00 +3°C° 0 mm 2 mps 585 mmHg 55%
    06:00 +3°C° 0 mm 2 mps 585 mmHg 52%
    07:00 +4°C° 0 mm 2 mps 586 mmHg 49%
    08:00 +4°C° 0 mm 2 mps 586 mmHg 46%
    09:00 +6°C° 0 mm 2 mps 587 mmHg 42%
    10:00 +7°C° 0 mm 2 mps 588 mmHg 37%
    11:00 +9°C° 0 mm 2 mps 588 mmHg 33%
    12:00 +9°C° 0 mm 2 mps 588 mmHg 32%
    13:00 +10°C° 0 mm 2 mps 588 mmHg 30%
    14:00 +12°C° 0 mm 2 mps 588 mmHg 29%
    15:00 +12°C° 0 mm 2 mps 588 mmHg 28%
    16:00 +12°C° 0 mm 2 mps 588 mmHg 26%
    17:00 +12°C° 0 mm 2 mps 588 mmHg 25%
    18:00 +10°C° 0 mm 2 mps 588 mmHg 29%
    19:00 +9°C° 0 mm 2 mps 587 mmHg 33%
    20:00 +9°C° 0 mm 1 mps 587 mmHg 37%
    21:00 +8°C° 0 mm 1 mps 587 mmHg 40%
    22:00 +7°C° 0 mm 1 mps 587 mmHg 43%
    23:00 +6°C° 0 mm 1 mps 587 mmHg 46%

    Day after tomorrow, 26 March, Tuesday

    Time Temperature Precipitation Wind Pressure Humidity
    00:00 +6°C° 0 mm 1 mps 587 mmHg 45%
    01:00 +6°C° 0 mm 1 mps 587 mmHg 45%
    02:00 +5°C° 0 mm 2 mps 587 mmHg 44%
    03:00 +4°C° 0 mm 2 mps 586 mmHg 45%
    04:00 +4°C° 0 mm 2 mps 586 mmHg 45%
    05:00 +5°C° 0 mm 1 mps 586 mmHg 46%
    06:00 +5°C° 0 mm 1 mps 586 mmHg 43%
    07:00 +5°C° 0 mm 2 mps 587 mmHg 39%
    08:00 +6°C° 0 mm 2 mps 588 mmHg 36%
    09:00 +7°C° 0 mm 2 mps 588 mmHg 32%
    10:00 +9°C° 0 mm 2 mps 589 mmHg 28%
    11:00 +12°C° 0 mm 2 mps 589 mmHg 24%
    12:00 +13°C° 0 mm 2 mps 589 mmHg 23%
    13:00 +14°C° 0 mm 2 mps 590 mmHg 21%
    14:00 +15°C° 0 mm 2 mps 590 mmHg 20%
    15:00 +15°C° 0 mm 2 mps 589 mmHg 22%
    16:00 +15°C° 0 mm 2 mps 589 mmHg 23%
    17:00 +15°C° 0 mm 2 mps 589 mmHg 25%
    18:00 +14°C° 0 mm 1 mps 589 mmHg 30%
    19:00 +13°C° 0 mm 1 mps 589 mmHg 35%
    20:00 +11°C° 0 mm 0 mps 590 mmHg 40%
    21:00 +11°C° 0 mm 0 mps 589 mmHg 42%
    22:00 +10°C° 0 mm 0 mps 589 mmHg 44%
    23:00 +11°C° 0 mm 1 mps 589 mmHg 47%

    27 March, Wednesday

    Time Temperature Precipitation Wind Pressure Humidity
    00:00 +9°C° 0 mm 0 mps 589 mmHg 50%
    01:00 +9°C° 0 mm 0 mps 588 mmHg 54%
    02:00 +8°C° 0 mm 0 mps 588 mmHg 58%
    03:00 +8°C° 0 mm 0 mps 587 mmHg 60%
    04:00 +7°C° 0 mm 0 mps 587 mmHg 63%
    05:00 +7°C° 0 mm 0 mps 587 mmHg 66%
    06:00 +8°C° 0 mm 0 mps 588 mmHg 64%
    07:00 +8°C° 0 mm 0 mps 588 mmHg 61%
    08:00 +9°C° 0 mm 0 mps 589 mmHg 59%
    09:00 +12°C° 0 mm 1 mps 589 mmHg 56%
    10:00 +13°C° 0 mm 1 mps 590 mmHg 53%
    11:00 +14°C° 0 mm 2 mps 590 mmHg 50%
    12:00 +14°C° 0 mm 3 mps 591 mmHg 48%
    13:00 +15°C° 0 mm 4 mps 591 mmHg 46%
    14:00 +16°C° 0 mm 5 mps 591 mmHg 43%
    15:00 +16°C° 0 mm 5 mps 590 mmHg 43%
    16:00 +17°C° 0 mm 6 mps 590 mmHg 43%
    17:00 +17°C° 0 mm 6 mps 590 mmHg 42%
    18:00 +17°C° 0 mm 4 mps 590 mmHg 48%
    19:00 +14°C° 0 mm 3 mps 590 mmHg 53%
    20:00 +14°C° 0 mm 1 mps 590 mmHg 58%
    21:00 +14°C° 0 mm 1 mps 590 mmHg 59%
    22:00 +13°C° 0 mm 1 mps 590 mmHg 61%
    23:00 +13°C° 0 mm 1 mps 590 mmHg 62%

    28 March, Thursday

    Time Temperature Precipitation Wind Pressure Humidity
    00:00 +12°C° 0 mm 2 mps 589 mmHg 63%
    01:00 +12°C° 0 mm 2 mps 589 mmHg 65%
    02:00 +11°C° 0 mm 3 mps 589 mmHg 66%
    03:00 +10°C° 0.3 mm 2 mps 588 mmHg 72%
    04:00 +10°C° 0.3 mm 2 mps 588 mmHg 77%
    05:00 +10°C° 0.3 mm 1 mps 588 mmHg 82%
    06:00 +10°C° 0.1 mm 2 mps 588 mmHg 79%
    07:00 +10°C° 0.1 mm 2 mps 589 mmHg 75%
    08:00 +10°C° 0.1 mm 2 mps 589 mmHg 72%
    09:00 +12°C° 0.1 mm 3 mps 590 mmHg 66%
    10:00 +13°C° 0.1 mm 4 mps 590 mmHg 59%
    11:00 +14°C° 0.1 mm 5 mps 591 mmHg 53%
    12:00 +15°C° 0 mm 5 mps 591 mmHg 48%
    13:00 +16°C° 0 mm 6 mps 591 mmHg 43%
    14:00 +17°C° 0 mm 6 mps 590 mmHg 38%
    15:00 +17°C° 0 mm 5 mps 590 mmHg 36%
    16:00 +17°C° 0 mm 5 mps 590 mmHg 34%
    17:00 +18°C° 0 mm 4 mps 589 mmHg 32%
    18:00 +17°C° 0 mm 3 mps 589 mmHg 36%
    19:00 +16°C° 0 mm 2 mps 589 mmHg 40%
    20:00 +15°C° 0 mm 1 mps 589 mmHg 45%
    21:00 +14°C° 0 mm 1 mps 589 mmHg 47%
    22:00 +14°C° 0 mm 1 mps 589 mmHg 49%
    23:00 +13°C° 0 mm 1 mps 589 mmHg 51%

    29 March, Friday

    Time Temperature Precipitation Wind Pressure Humidity
    00:00 +13°C° 0 mm 1 mps 588 mmHg 52%
    01:00 +12°C° 0 mm 1 mps 588 mmHg 53%
    02:00 +12°C° 0 mm 1 mps 587 mmHg 54%
    03:00 +12°C° 0 mm 2 mps 587 mmHg 55%
    04:00 +12°C° 0 mm 2 mps 587 mmHg 57%
    05:00 +10°C° 0 mm 2 mps 587 mmHg 59%
    06:00 +10°C° 1 mm 2 mps 587 mmHg 66%
    07:00 +9°C° 1 mm 3 mps 587 mmHg 74%
    08:00 +9°C° 1 mm 3 mps 587 mmHg 81%
    09:00 +9°C° 0.2 mm 3 mps 587 mmHg 77%
    10:00 +10°C° 0.2 mm 3 mps 588 mmHg 74%
    11:00 +11°C° 0.2 mm 3 mps 588 mmHg 70%
    12:00 +12°C° 0 mm 4 mps 588 mmHg 62%
    13:00 +13°C° 0 mm 5 mps 588 mmHg 54%
    14:00 +15°C° 0 mm 6 mps 588 mmHg 46%
    15:00 +15°C° 0.1 mm 6 mps 588 mmHg 44%
    16:00 +15°C° 0.1 mm 7 mps 588 mmHg 42%
    17:00 +16°C° 0.1 mm 8 mps 588 mmHg 40%
    18:00 +15°C° 0.1 mm 7 mps 588 mmHg 44%
    19:00 +12°C° 0.1 mm 7 mps 588 mmHg 49%
    20:00 +11°C° 0.1 mm 7 mps 588 mmHg 53%
    21:00 +11°C° 0.2 mm 6 mps 588 mmHg 56%
    22:00 +10°C° 0.2 mm 6 mps 587 mmHg 58%
    23:00 +9°C° 0.2 mm 6 mps 587 mmHg 61%
    Show more